Location: Arboyeti
(42.1122°N, 44.6017°E)
Time: 19:32:37
(UTC+00:00)

NPP - Pass Details

Date: 19 April 2021
Orbit: 826 x 828 km, 98.7° (Epoch: 18 May)

Event Time Altitude Azimuth Distance (km) Brightness Sun altitude
Rises 22:46:24 0° 14° (NNE) 3,374 7.9 -31.1°
Reaches altitude 10° 22:48:45 10° 15° (NNE) 2,437 6.9 -30.9°
Enters shadow 22:53:22 66° 28° (NNE) 903 3.9 -30.5°
